Lid_Strength_Index
5 6 7 7 6 7 7 8 8 7 6 6 6 6 5 4 4 5 5 5 5 4 3 2 1 1 1 1 1 0 0 -0 0 0 1 1 1 0 -0 -0 -1 -1 -1 -1
6 8 6 6 6 7 7 8 8 7 6 6 6 7 5 5 5 5 5 6 5 4 4 3 2 1 2 1 1 1 0 0 0 0 0 0 0 -0 -0 -1 -1 -2 -1 -2
7 7 6 6 7 7 7 8 8 8 6 6 7 8 6 5 5 5 4 5 5 5 5 4 3 3 2 2 1 1 0 0 -0 -0 -0 -0 -0 0 1 0 -0 -1 -1 -1
7 6 7 7 8 7 8 7 7 8 8 10 7 10 7 6 6 6 5 5 5 5 4 4 5 5 4 3 1 1 0 0 0 -0 -0 0 1 2 1 0 -0 -0 -1 -1
7 7 7 8 8 7 8 7 7 7 8 8 8 10 8 6 7 7 6 5 5 5 5 4 5 5 5 5 5 3 1 1 0 -0 -0 1 1 1 -0 -0 0 -1 -0 -1
6 5 6 7 6 6 6 7 7 7 8 11 9 10 9 9 9 7 6 5 5 5 5 6 5 5 6 5 6 6 5 3 3 3 3 3 3 2 2 1 1 1 0 -0
7 7 6 6 7 6 7 8 11 12 12 11 9 10 10 8 7 7 7 6 5 4 6 6 7 6 6 6 6 5 4 5 5 4 4 4 3 4 3 1 1 1 1 0
9 11 7 7 8 8 8 8 11 14 13 11 8 11 10 7 6 6 5 5 5 5 5 6 7 7 7 6 5 5 4 3 3 3 2 2 1 1 1 1 0 1 0 0
9 10 7 7 6 7 8 9 8 10 10 12 9 9 8 7 7 6 6 6 6 5 6 6 7 7 6 5 4 3 3 3 3 3 2 2 2 2 2 2 0 1 0 0
8 10 9 8 7 6 7 6 11 10 15 16 11 11 10 9 8 6 6 6 6 4 5 6 6 6 5 5 5 4 2 3 3 3 3 3 3 2 2 1 2 1 0 0
7 9 10 9 9 10 8 9 9 9 10 14 15 10 8 8 7 7 6 5 5 5 4 4 4 4 4 4 5 5 4 4 4 3 3 3 3 3 2 2 2 1 1 0
7 8 11 10 7 7 8 8 8 11 13 11 13 12 6 6 6 5 5 5 4 4 3 3 3 3 4 3 4 4 5 5 4 4 4 4 4 4 4 3 3 2 1 1
6 9 12 11 9 8 9 8 8 8 9 13 14 12 6 5 5 4 5 5 4 4 3 3 3 3 3 3 4 4 5 5 5 4 4 4 4 4 4 4 4 3 3 2
6 8 10 12 10 9 10 9 8 9 12 11 11 10 7 6 6 5 4 4 4 4 3 3 4 3 3 2 3 4 4 4 5 5 5 4 4 4 4 3 4 3 3 3
6 10 9 9 9 9 9 9 9 9 9 12 10 9 7 6 5 5 4 4 4 4 4 3 4 3 3 2 2 3 4 4 4 5 5 5 4 4 4 3 3 2 2 3
6 10 9 10 9 9 10 9 9 9 8 8 8 9 5 5 4 5 4 4 4 4 4 3 3 3 3 2 2 2 2 3 2 4 4 4 4 3 3 3 3 2 2 3
8 9 10 13 10 10 12 10 9 8 7 8 10 7 5 5 5 5 5 5 5 4 4 4 3 3 3 2 2 2 2 1 2 2 2 3 3 3 3 3 2 2 2 1
8 9 10 12 11 15 10 7 8 8 7 6 6 6 5 5 5 4 4 4 5 4 4 3 3 2 2 1 1 1 1 2 2 1 2 2 2 3 3 3 2 1 1 1
7 8 11 13 12 10 9 8 8 9 9 6 6 6 5 5 5 5 4 3 4 3 2 2 1 1 0 1 0 1 1 1 1 2 1 1 1 1 1 2 1 1 1 1
7 7 10 11 15 16 10 7 5 6 11 5 5 6 6 5 8 7 3 3 3 2 2 1 1 1 0 1 0 1 1 1 1 1 1 1 1 1 1 1 0 0 0 0
10 10 13 12 14 11 7 6 5 12 11 5 5 5 5 6 5 4 3 3 2 2 2 1 1 1 1 0 0 1 1 1 0 0 0 1 1 1 0 0 0 -0 0 0
10 12 12 11 14 16 5 6 9 7 5 5 4 4 4 4 4 3 3 3 3 2 2 1 1 1 1 0 1 1 1 0 1 1 1 0 1 1 1 0 0 0 0 1
11 8 10 9 9 6 4 5 4 3 4 4 4 3 3 4 4 3 3 3 2 2 2 1 2 2 1 1 1 2 1 1 1 1 1 1 0 0 0 1 1 1 1 2
8 6 8 8 7 6 5 4 4 4 3 3 3 3 3 4 4 4 3 4 4 2 3 2 3 4 3 3 3 2 2 2 2 2 1 0 0 0 -0 0 1 1 1 2
8 7 8 8 7 6 6 5 5 4 4 3 2 3 3 4 4 3 3 3 2 2 3 3 3 4 3 2 2 2 3 2 3 2 1 1 1 1 1 1 1 1 1 2
7 8 9 9 6 7 6 5 4 4 3 3 3 3 3 3 4 3 3 3 4 4 3 4 3 3 3 2 2 3 3 3 3 2 2 2 3 2 2 2 1 5 6 6